Hourly Data Report for November 18, 2017

All times are specified in Local Standard Time (LST). Add 1 hour to adjust for Daylight Saving Time where and when it is observed.

DAUPHIN
MANITOBA

51°06'03.000" N
100°03'09.000" W
304.50 m
5040689
71036
YDN

Download Data

Hourly Data (November 2017)
Hourly Data Report for November 18, 2017
Temp Definition
°C
Dew Point Temp Definition
°C
Rel Hum Definition
%
Wind Dir Definition
10's deg

Wind Spd Definition
km/h
Visibility Definition
km
Stn Press Definition
kPa
Hmdx Definition


Wind Chill Definition


Weather Definition


TIME
00:00 -9.7 -12.9 78 28 32 16.1 97.38   -19 LegendNANA
01:00 -9.9 -12.3 83 28 24 4.8 97.46   -18 Snow
02:00 -10.4 -13.2 80 28 24 16.1 97.51   -19 LegendNANA
03:00 -10.1 -13.3 78 28 21 16.1 97.60   -18 LegendNANA
04:00 -10.3 -13.6 77 29 21 16.1 97.66   -18 Snow
05:00 -12.8 -15.6 80 28 21 16.1 97.74   -22 LegendNANA
06:00 -14.1 -17.0 79 28 17 16.1 97.78   -22 LegendNANA
07:00 -13.7 -16.8 78 28 28 16.1 97.79   -24 LegendNANA
08:00 -14.1 -17.0 79 26 35 16.1 97.80   -26 LegendNANA
09:00 -14.5 -17.9 76 27 34 16.1 97.85   -26 LegendNANA
10:00 -13.7 -17.4 74 26 39 16.1 97.84   -26 LegendNANA
11:00 -12.7 -16.9 71 27 37 16.1 97.86   -24 LegendNANA
12:00 -12.0 -16.5 70 27 37 16.1 97.88   -23 LegendNANA
13:00 -11.4 -16.0 69 27 35 16.1 97.86   -22 LegendNANA
14:00 -10.9 -15.3 70 27 39 16.1 97.84   -22 LegendNANA
15:00 -10.5 -15.3 68 27 45 16.1 97.77   -22 LegendNANA
16:00 -10.6 -15.4 68 27 37 16.1 97.85   -21 LegendNANA
17:00 -11.4 -15.5 72 27 24 16.1 97.91   -20 LegendNANA
18:00 -12.0 -16.1 72 27 18 16.1 97.92   -20 LegendNANA
19:00 -11.3 -15.9 69 26 32 16.1 97.85   -22 LegendNANA
20:00 -11.4 -15.9 70 26 24 16.1 97.89   -20 LegendNANA
21:00 -11.4 -15.8 70 26 28 16.1 97.84   -21 LegendNANA
22:00 -11.1 -15.3 72 27 26 16.1 97.85   -20 LegendNANA
23:00 -10.7 -14.5 74 28 22 16.1 97.83   -19 LegendNANA

Notes on Data Quality.

Legend

  • E = Estimated
  • M = Missing
  • NA = Not Available
Date modified: